Location: UBC Liquid-Mirror Observatory
(49.2876°N, 122.5728°W)
Time: 01:41:59
(UTC-07:00)

Daily predictions for brighter satellites

Satellite Brightness Start Highest point End
(mag) Time Altitude Azimuth Time Altitude Azimuth Time Altitude Azimuth
CENTAUR R/B 4.2 00:20:43 26° NW 00:23:03 32° NNW 00:29:37 10° NE
ATLAS 3B R/B 4.2 01:17:21 10° NW 01:20:59 30° NNW 01:20:59 30° NNW
CZ-4C R/B 4.2 01:32:10 10° NW 01:35:26 28° NNW 01:35:26 28° NNW
Cosmos 2082 Rocket 4.3 02:15:21 21° N 02:15:21 21° N 02:17:38 10° NNE
ATLAS 5 CENTAUR R/B 4.2 02:19:08 25° NE 02:19:08 25° NE 02:22:52 10° E
CZ-2D R/B 4.3 02:46:00 10° NE 02:49:09 19° E 02:49:09 19° E
Cosmos 2219 Rocket 3.7 02:46:33 10° NNW 02:50:57 33° NNE 02:50:57 33° NNE
NOSS 3-1 (A) 4.4 02:53:38 44° N 02:53:38 44° N 02:58:49 10° NE
SL-16 R/B 3.1 03:05:54 53° NE 03:05:54 53° NE 03:11:36 10° N
ATLAS 2AS CENTAUR R/B 3.0 03:08:42 78° NE 03:08:42 78° NE 03:16:18 10° NE
Resurs 1-4 Rocket 3.6 03:10:57 10° NNE 03:15:12 31° E 03:15:12 31° E
Lacrosse 5 rocket 3.7 03:29:15 24° ENE 03:29:15 24° ENE 03:31:08 10° ENE
NOSS 3-2 (A) 4.0 03:25:36 10° NW 03:32:55 75° NE 03:40:53 10° SE
Cosmos 2333 Rocket 2.9 03:27:23 10° NNW 03:32:59 51° NE 03:38:31 10° SE
Okean O Rocket 4.3 03:33:54 10° ENE 03:36:11 14° E 03:37:52 12° ESE
Cosmos 2239 Rocket 4.5 03:40:09 10° N 03:46:14 80° NE 03:46:14 80° NE
CZ-3A R/B 3.0 03:52:58 58° NNE 03:52:58 58° NNE 03:58:10 10° E
Lacrosse 5 3.7 03:57:13 21° SE 03:57:23 21° SE 04:01:09 10° ENE
Cosmos 2237 Rocket 2.6 03:52:06 10° NNW 03:57:44 62° ENE 04:03:17 10° SE
IRAS Rocket 4.2 03:54:50 10° NNE 04:00:04 79° NE 04:00:04 79° NE
ATLAS 5 CENTAUR R/B 2.4 04:00:54 41° NW 04:03:09 79° NE 04:09:33 10° SE
NOSS 2-3 (C) 4.3 04:06:47 62° NNW 04:06:47 62° NNW 04:12:29 10° NE
CENTAUR R/B 3.9 04:01:23 10° NW 04:08:33 47° NNE 04:16:22 10° ESE
NOSS 3-2 (C) 3.8 04:03:35 10° NW 04:10:58 88° SW 04:19:00 10° SE
ARIANE 5 R/B 2.7 04:06:03 10° NNE 04:10:30 66° N 04:10:30 66° N
Cosmos 1980 3.7 04:05:50 10° NNW 04:11:34 82° ENE 04:17:15 10° SSE
Cosmos 1535 Rocket 4.4 04:05:41 10° NNW 04:11:22 66° WNW 04:11:22 66° WNW
MOZ.5/SAFIR/RUBIN 5/SL-8 4.4 04:10:21 37° SE 04:11:55 56° ENE 04:16:36 10° N
Cosmos 1238 Rocket 4.5 04:13:04 46° WNW 04:13:04 46° WNW 04:19:03 10° N
ADEOS 4.1 04:09:09 10° N 04:13:19 48° NNW 04:13:19 48° NNW
CZ-2D R/B 4.4 04:10:37 10° NNE 04:14:02 45° ENE 04:14:02 45° ENE
UNKNOWN OBJECT B 3.9 04:11:42 10° NNE 04:14:36 45° NE 04:14:36 45° NE
Cosmos 2219 3.1 04:16:21 74° NW 04:16:21 74° NW 04:21:56 10° NNE
Meteor 1-12 Rocket 4.5 04:10:26 10° NNW 04:15:29 58° NW 04:15:29 58° NW
Nadezhda 3 Rocket 4.1 04:17:18 58° WNW 04:17:18 58° WNW 04:23:23 10° N
SL-16 R/B 3.3 04:11:49 10° NNW 04:17:16 44° NE 04:22:41 10° SE
Meteor 2-16 Rocket 4.3 04:11:47 10° NNW 04:17:51 68° W 04:17:51 68° W
Cosmos 1743 3.9 04:16:10 10° N 04:19:15 42° NE 04:19:15 42° NE
BREEZE-M DEB (TANK) 3.5 04:22:10 61° SW 04:22:41 64° SSW 04:34:23 10° SE
Cosmos 2112 Rocket 4.3 04:17:24 10° NNW 04:22:43 67° ENE 04:27:57 10° SSE
RESURS DK-1 4.5 04:21:58 19° SE 04:23:18 22° ESE 04:26:31 10° ENE
Cosmos 1680 Rocket 3.5 04:22:01 10° NNW 04:27:21 82° ENE 04:32:38 10° SSE
Okean 1 4.2 04:30:44 41° N 04:30:44 41° N 04:33:28 10° N
CZ-2D R/B 2.0 04:25:06 10° N 04:30:19 69° WNW 04:30:29 68° W
NOSS 2-3 (D) 4.5 04:31:24 47° NW 04:31:56 49° NW 04:37:54 10° NE
Meteor 1-18 Rocket 4.2 04:32:14 62° WSW 04:32:51 66° WNW 04:38:37 10° N
Cosmos 1812 4.3 04:35:15 28° NNW 04:35:15 28° NNW 04:37:17 10° N
Cosmos 2227 Rocket 2.9 04:31:28 29° S 04:34:05 51° ESE 04:39:35 10° NE
SL-24 R/B 4.3 04:34:22 61° S 04:35:16 85° W 04:40:08 10° N
Cosmos 1727 Rocket 4.3 04:30:49 19° S 04:35:24 67° E 04:41:42 10° NNE
Cosmos 2219 Rocket 3.7 04:30:27 10° NW 04:32:30 22° NW 04:32:30 22° NW
BREEZE M DEB (TANK) 3.1 04:36:40 44° SE 04:36:40 44° SE 04:42:35 10° ENE
ARGOS Delta rocket 3.8 04:32:20 10° N 04:37:09 67° WNW 04:37:16 67° W
Cosmos 2084 3.5 04:39:00 64° ENE 04:39:00 64° ENE 04:42:21 10° NE
NOSS 3-4 (A) 4.0 04:35:45 33° S 04:38:34 57° ESE 04:45:00 10° NE
NOSS 3-4 (C) 4.0 04:35:50 32° S 04:38:40 57° ESE 04:45:06 10° NE
PSLV R/B 4.4 04:37:04 10° NNE 04:41:08 57° E 04:42:16 41° SSE
BREEZE-M DEB (TANK) 3.4 04:42:37 79° NW 04:42:49 84° N 04:50:05 10° E
Cosmos 2297 Rocket 3.2 04:39:40 18° S 04:43:29 44° ESE 04:48:50 10° NE
SL-16 R/B 3.5 04:51:01 28° WNW 04:51:01 28° WNW 04:54:58 10° NNW
Aureole 2 Rocket 4.3 04:46:09 10° N 04:49:27 31° ENE 04:52:28 10° ESE
ERS-2 3.6 04:46:59 10° N 04:49:01 26° NNW 04:49:01 26° NNW
IRS-1C Rocket 4.2 04:48:34 10° NNE 04:53:53 74° ESE 04:57:35 20° S
Resurs 1-4 Rocket 2.5 04:50:39 10° N 04:55:40 43° WNW 04:56:17 41° W
Cosmos 724 4.4 04:49:30 10° NW 04:55:47 87° NE 05:02:02 10° SE
NOSS 0 Rocket 4.2 04:50:08 10° NW 04:56:00 44° WSW 05:01:50 10° S
MOS 1-B 4.3 04:50:35 10° NNE 04:56:19 68° WNW 04:58:42 36° SW
Cosmos 968 Rocket 3.9 04:57:44 40° WNW 04:58:18 42° WNW 05:03:11 10° NNE
Cosmos 1461 3.8 04:59:03 35° NW 04:59:18 36° NW 05:03:17 10° NNE
COS B Rocket 4.1 04:59:28 27° E 04:59:44 28° E 05:01:59 10° NNE
Cosmos 1153 Rocket 4.4 04:53:24 10° NNW 04:59:44 77° W 05:06:06 10° S
ATLAS 2AS CENTAUR R/B 3.8 04:56:08 26° WNW 05:00:03 40° NNW 05:07:39 10° NE
Cosmos 1934 Rocket 4.4 04:54:26 10° NNW 05:00:14 39° W 05:01:12 37° WSW
CZ-4B R/B 3.4 04:57:59 10° NNE 05:02:20 67° ESE 05:05:46 17° S
Thor Agena Rocket 3.7 04:57:40 10° SSE 05:02:58 79° ENE 05:08:17 10° NNW
Cosmos 1605 Rocket 4.1 04:57:40 10° NNW 05:03:36 51° W 05:08:06 18° SSW
IRS-1D 4.4 05:00:32 10° N 05:05:15 33° WNW 05:05:49 32° WNW
Lacrosse 5 rocket 2.1 05:04:59 38° WNW 05:06:08 47° NNW 05:10:27 10° NE
Cosmos 1025 Rocket 3.0 05:04:57 25° S 05:07:28 85° ESE 05:11:49 10° N
PAYLOAD B 4.3 05:02:41 10° NNE 05:08:13 81° ESE 05:13:34 11° SSW
Meteor 1-15 Rocket 4.4 05:03:02 10° N 05:08:38 73° ENE 05:14:13 10° SSE
Okean O Rocket 1.5 05:08:42 10° N 05:13:07 74° WNW 05:15:19 29° SSW
Cosmos 2082 3.6 05:10:40 24° SSW 05:14:11 90° ESE 05:19:51 10° NNE
Cosmos 1339 Rocket 4.5 05:08:54 11° SSW 05:15:06 78° W 05:21:33 10° N
Cosmos 2098 Rocket 3.9 05:12:58 10° N 05:16:29 46° ENE 05:20:51 10° SSE
Cosmos 2333 Rocket 2.8 05:12:02 10° NW 05:17:02 31° WSW 05:21:58 10° SSW
Cosmos 1606 Rocket 3.4 05:13:44 10° NNW 05:18:06 65° W 05:22:25 10° S
Okean 2 3.7 05:16:28 10° S 05:20:35 67° E 05:24:42 10° NNE
SOZ 3.9 05:21:25 50° WNW 05:22:00 84° NNE 05:24:12 10° ESE
NOSS 3-2 (A) 4.5 05:16:56 10° NW 05:23:30 34° WSW 05:30:28 10° S
Cosmos 1666 2.7 05:23:48 10° NNW 05:27:38 60° W 05:31:25 10° S
Tiangong 1 2.7 05:27:24 21° S 05:27:45 21° S 05:30:08 10° ESE
Cosmos 1726 Rocket 3.5 05:24:45 10° NNW 05:29:06 59° W 05:33:23 10° S
EXPRESS MD2 3.4 05:29:47 37° WSW 05:30:37 48° SSW 05:35:36 10° SE
Cosmos 2344 3.9 05:27:00 23° WSW 05:32:22 63° NW 05:41:54 10° NE
Meteor 1-19 Rocket 4.2 05:29:50 12° SSW 05:34:55 59° WNW 05:40:28 10° N
CZ-2C R/B 4.4 05:33:55 14° SSW 05:37:09 31° W 05:41:18 10° NNW
Cosmos 1898 Rocket 3.9 05:32:24 10° S 05:37:39 65° ESE 05:42:55 10° NNE
CZ-4B R/B 3.2 05:33:10 10° N 05:38:31 64° WNW 05:43:54 10° SSW
Cosmos 2061 Rocket 4.0 05:32:30 10° NNW 05:38:46 69° W 05:45:04 10° S
Lacrosse 5 1.8 05:36:26 22° SW 05:39:47 87° SE 05:44:53 10° NE
Cosmos 2237 Rocket 3.1 05:36:51 10° NW 05:41:21 25° WSW 05:45:49 10° SSW
Cosmos 2100 Rocket 4.0 05:35:39 10° NNW 05:41:44 59° W 05:47:53 10° S
Cosmos 192 4.5 05:36:49 10° NNW 05:41:49 79° ENE 05:46:45 10° SSE
Cosmos 1802 Rocket 3.9 05:35:56 10° NNW 05:42:07 72° W 05:48:11 10° S
Cosmos 292 Rocket 4.1 05:37:51 10° NW 05:42:25 41° WSW 05:46:57 10° S
Cosmos 220 Rocket 4.2 05:40:30 22° SW 05:43:00 50° WNW 05:47:08 10° NNE
Cosmos 1892 Rocket 3.6 05:40:17 10° SSW 05:44:44 66° WNW 05:49:14 10° N
PSLV R/B 3.5 05:42:47 10° N 05:47:10 78° WNW 05:51:27 10° SSW
ATLAS 5 CENTAUR R/B 3.3 05:42:41 10° WNW 05:47:30 26° WSW 05:52:38 10° SSW
ARIANE 5 R/B 4.2 05:46:48 10° NNW 05:49:31 15° NW 05:50:50 13° WNW
Meteor 2-4 Rocket 3.9 05:43:55 10° SSW 05:49:43 62° WNW 05:55:38 10° N
Cosmos 1937 Rocket 4.0 05:46:21 10° S 05:51:30 62° ESE 05:56:44 10° NNE
USA 129 1.1 05:49:45 10° SSE 05:51:37 89° SSE 05:53:21 10° NNW
ADEOS II 2.1 05:47:36 10° NNE 05:52:54 85° WNW 05:58:10 10° SSW
Meteor PRIRODA 3.6 05:50:14 10° NNE 05:54:01 88° ESE 05:57:44 10° SSW
Meteor 1-23 Rocket 4.3 05:48:35 10° SSW 05:54:09 61° WNW 05:59:51 10° N
Cosmos 1725 Rocket 4.1 05:48:06 10° N 05:54:28 85° E 06:00:44 10° S
ADEOS Rocket 3.4 05:51:34 10° N 05:58:52 66° WNW 06:05:25 10° SSW
CENTAUR R/B 3.1 05:52:08 10° NW 05:59:46 67° SW 06:07:58 10° SSE
Cosmos 2228 3.2 05:56:06 10° NNW 06:00:23 51° W 06:04:37 10° S
RESURS DK-1 2.7 05:57:56 15° SW 06:01:06 46° NW 06:05:08 10° NNE
SL-16 R/B 2.7 05:56:09 10° NW 06:01:20 37° WSW 06:06:29 10° S
Cosmos 1812 Rocket 3.8 05:58:35 10° N 06:03:03 78° E 06:07:30 10° SSE
Cosmos 1346 Rocket 3.4 06:02:42 10° SW 06:06:22 35° WNW 06:10:07 10° N
CZ-2D R/B 3.9 06:07:08 10° NNW 06:09:30 13° NW 06:11:48 10° WNW
Okean-O 2.8 06:12:17 10° N 06:16:37 51° WNW 06:20:55 10° SW
Cosmos 2016 Rocket 4.2 06:11:04 10° NNW 06:17:09 48° W 06:23:08 10° SSW
Cosmos 2227 Rocket 3.0 06:13:20 10° WSW 06:18:23 34° NW 06:23:32 10° NNE
Cosmos 2084 Rocket 3.6 06:14:33 10° NW 06:18:23 68° NE 06:22:21 10° SE
Cosmos 2058 Rocket 4.1 06:16:36 10° NW 06:20:07 24° W 06:23:38 10° SW
NOSS 2-2 (E) 4.5 06:16:33 10° SSW 06:20:41 53° SE 06:25:40 10° NE
CZ-4B R/B 3.8 06:20:44 10° N 06:24:45 70° WNW 06:28:33 10° SSW
Aureole 2 Rocket 3.7 06:22:12 10° NW 06:24:53 20° W 06:27:24 10° SSW
Cosmos 2297 Rocket 2.8 06:22:24 10° WSW 06:27:38 38° NW 06:32:54 10° NNE
OPS 6432 4.5 06:24:49 10° SW 06:28:04 71° SE 06:31:08 10° NE
Meteor 1-22 Rocket 4.4 06:24:13 10° N 06:29:40 81° ENE 06:35:19 10° SSE
NOSS 3-4 (A) 4.1 06:23:35 10° WSW 06:29:43 44° NNW 06:36:08 10° NE
NOSS 3-4 (C) 4.1 06:23:41 10° WSW 06:29:49 44° NNW 06:36:14 10° NE
Iridium 4 Rocket 4.2 06:26:24 10° SSE 06:31:06 53° E 06:35:28 10° NNE
SL-24 R/B 4.2 06:26:40 10° NNE 06:31:15 84° ESE 06:35:15 10° SSW
Cosmos 2298 Rocket 4.4 06:29:42 10° SW 06:34:47 45° WNW 06:39:55 10° NNE
